GEFSMW_500_meanwind_168.txt.gz
Wind_Speed
16 17 17 18 19 20 20 20 20 21 22 22 23 23 23 23 24 25 25 25 25 25 26 27 27 28 28 29 29 29 29 30 30 30 30 30 30 30 30 29 29 28 28
17 17 19 20 21 21 21 21 21 22 23 23 23 23 22 23 24 25 25 26 25 26 26 27 28 29 29 30 30 30 30 30 30 30 30 30 30 30 30 30 29 29 29
18 18 19 20 21 22 22 23 23 23 23 22 23 23 23 24 25 26 26 26 26 27 27 28 29 30 30 30 30 30 30 30 31 31 30 30 30 31 31 31 31 30 31
18 19 19 20 21 22 22 22 23 24 24 24 24 24 24 24 25 25 26 27 28 28 28 29 29 30 30 31 30 30 30 29 29 30 30 30 30 31 31 31 32 32 32
19 19 19 20 21 21 22 22 23 23 22 22 23 24 24 25 25 26 26 27 28 28 29 29 29 29 30 30 30 29 28 28 29 29 30 30 30 30 31 32 33 33 32
19 20 19 20 20 21 21 21 22 22 22 22 23 24 24 25 25 25 26 27 28 28 29 29 29 29 29 29 29 28 28 28 28 29 29 29 30 30 31 31 32 33 33
20 19 19 20 21 22 21 21 21 21 22 22 23 24 24 24 25 25 26 27 28 29 29 28 28 28 28 27 27 27 28 28 28 28 28 28 29 29 30 30 30 31 31
19 19 20 21 22 22 22 21 21 22 22 23 24 24 24 23 24 25 26 26 27 28 28 28 29 28 27 26 26 26 27 27 26 27 27 27 27 27 28 28 29 29 29
18 18 20 21 22 22 22 22 20 20 21 23 23 23 23 23 24 24 25 26 26 26 26 26 26 26 26 25 25 25 25 25 25 25 25 25 25 26 26 27 27 26 27
18 19 21 20 20 21 20 20 19 19 20 21 22 23 23 23 24 25 25 25 24 24 25 24 24 23 23 23 23 23 23 23 23 23 23 23 24 24 24 25 25 25 26
19 20 20 19 19 20 20 18 18 19 19 20 22 22 23 23 23 23 23 22 22 23 23 23 22 22 22 22 21 21 21 22 22 22 22 23 22 23 22 23 24 25 25
18 19 19 18 18 19 18 18 18 19 19 20 22 22 22 22 22 22 22 22 22 22 22 22 22 22 22 21 21 20 20 21 21 21 22 22 22 22 22 22 23 24 23
18 18 17 17 17 17 17 18 18 18 19 20 20 21 21 21 21 21 22 22 22 21 21 21 21 22 21 21 20 20 20 20 21 21 21 21 20 20 21 21 21 21 22
17 16 15 15 15 16 16 17 18 18 19 19 19 20 20 20 20 20 21 21 20 20 21 21 21 21 21 20 20 20 20 20 19 19 18 18 18 19 19 20 20 20 21
16 15 14 14 14 15 16 16 17 17 17 17 17 18 19 19 19 18 19 19 19 19 20 20 20 19 18 19 19 19 19 18 16 16 15 16 16 17 18 18 18 19 20
14 14 14 14 14 14 15 15 15 15 15 15 16 17 17 17 17 17 18 18 18 18 19 19 18 18 18 18 17 16 16 14 14 14 15 15 16 17 17 17 17 18 18
14 13 13 13 13 13 13 13 13 13 13 14 15 16 16 16 16 16 17 17 17 17 17 18 17 17 17 16 16 14 13 13 13 13 14 15 15 15 16 16 16 16 16
11 11 11 11 12 11 11 11 12 13 13 14 15 15 16 15 15 15 16 16 15 15 16 16 16 16 15 15 14 13 13 12 12 13 13 13 13 13 13 13 13 13 13
10 9 10 11 11 10 10 10 11 12 12 13 14 14 15 15 15 15 15 14 14 15 16 16 15 15 14 13 13 13 12 12 12 12 12 12 11 11 11 11 10 10 10
8 8 9 9 10 10 10 10 10 11 12 12 13 13 13 13 13 13 13 13 14 14 15 15 15 14 14 13 13 13 12 12 11 10 10 10 9 9 9 8 8 8 8
7 7 8 9 9 9 9 9 10 11 11 12 12 12 13 13 13 12 12 13 13 14 15 15 14 14 14 14 13 12 12 11 10 10 9 8 8 7 6 6 7 7 7
6 6 7 7 8 8 8 9 10 11 11 11 11 12 12 12 12 12 12 13 13 14 14 14 14 14 13 13 13 12 11 11 10 9 8 8 6 5 5 5 6 6 6
5 5 6 7 7 8 8 9 10 11 11 11 11 11 12 12 11 11 12 13 13 13 14 14 13 13 13 13 13 13 12 11 10 9 8 8 7 6 5 5 4 4 4
5 5 5 5 6 7 7 8 9 10 10 10 10 11 11 11 11 12 12 13 13 13 14 14 14 14 14 14 13 13 12 11 10 9 9 8 8 7 5 4 4 4 4
4 4 4 5 6 6 7 7 8 9 9 9 9 10 10 11 12 12 12 12 13 13 13 14 14 14 14 14 13 13 13 12 10 10 9 8 8 7 7 6 5 5 4
3 4 5 5 5 6 6 7 7 8 8 8 9 10 11 11 11 12 13 13 12 13 13 13 13 13 13 14 13 13 13 12 11 10 10 9 8 8 7 7 6 5 4

GEFSMW_500_meanwind_174.txt.gz
Wind_Speed
19 19 20 21 21 22 21 21 21 21 22 23 23 24 25 25 26 26 27 27 28 28 28 28 29 29 29 29 29 29 29 28 27 28 29 29 30 30 30 30 30 29 29
19 19 20 21 21 21 22 22 22 23 22 23 24 25 25 26 27 27 27 27 28 28 28 28 30 30 30 30 30 29 28 27 27 28 29 30 30 30 30 31 31 30 31
20 21 20 20 20 21 22 21 21 21 22 22 24 24 24 26 27 26 26 27 27 28 28 29 29 30 30 30 30 29 29 28 29 29 30 30 31 30 31 31 31 31 31
20 20 19 20 21 22 21 21 21 22 22 23 24 24 25 25 26 26 26 27 27 27 28 29 29 30 30 30 30 29 29 29 29 29 29 29 30 29 30 30 31 31 31
20 19 19 20 21 22 22 22 23 23 23 23 24 24 24 24 25 26 26 27 28 28 28 29 29 29 30 30 29 29 29 29 28 28 28 28 29 29 29 30 30 31 32
20 20 21 21 22 22 23 23 23 24 24 23 24 23 23 24 25 26 27 27 27 28 28 29 29 29 29 29 28 28 28 28 27 28 27 27 27 27 27 28 29 30 30
20 21 21 21 22 23 23 23 23 23 22 22 23 23 23 24 25 25 26 26 27 28 28 29 29 28 27 27 27 27 26 26 26 27 26 26 26 25 25 26 27 28 29
20 21 21 21 22 22 22 23 22 22 22 23 23 23 24 24 24 25 25 26 27 28 27 26 26 26 26 25 24 24 24 24 24 24 24 24 24 24 24 25 25 26 27
19 20 20 21 21 21 21 22 22 22 22 23 23 23 23 23 24 25 26 26 26 26 25 24 24 24 24 23 23 23 22 23 23 23 23 23 23 23 23 24 25 25 25
19 19 19 20 20 21 21 21 21 21 22 23 22 21 21 22 23 23 22 23 23 22 21 22 23 23 22 22 22 22 22 22 22 23 23 23 24 24 24 24 24 25 25
18 19 19 20 20 21 21 21 20 19 20 21 21 21 21 21 21 21 21 21 20 21 21 21 22 21 21 21 21 22 22 22 22 23 23 23 23 23 23 23 24 24 24
18 18 18 19 19 20 20 20 19 18 19 19 20 20 19 20 20 20 19 19 20 20 20 21 21 21 21 20 21 21 21 22 22 22 22 22 23 22 22 22 23 23 22
17 17 17 18 18 18 18 17 17 18 19 19 19 18 18 19 19 18 19 19 19 20 20 20 20 19 19 19 20 20 21 21 21 21 21 21 22 21 21 21 21 21 21
17 17 17 16 16 16 16 16 16 17 17 17 17 17 18 18 18 18 19 19 19 19 19 19 18 18 18 19 19 19 19 19 19 19 19 19 20 19 19 19 19 20 20
16 16 15 15 15 15 15 15 15 15 15 15 16 16 17 17 17 18 18 18 18 18 18 18 18 18 18 19 19 19 19 19 18 18 18 18 18 17 17 17 17 18 18
14 14 14 14 13 13 13 14 14 13 13 14 15 16 16 16 16 16 17 17 17 17 17 17 17 17 18 18 19 19 18 18 17 16 15 15 15 14 15 15 16 16 17
13 13 13 12 12 12 12 13 13 12 13 13 14 14 14 15 15 16 16 17 17 17 17 16 17 17 17 17 18 18 17 16 15 14 14 14 14 13 13 14 14 14 15
12 12 11 11 12 12 11 11 11 12 12 13 13 13 13 14 15 15 15 16 16 16 16 15 16 16 17 17 17 16 15 15 14 13 13 13 12 12 12 12 12 12 13
10 10 10 10 10 10 10 10 11 11 12 11 12 12 12 13 14 14 14 14 15 15 15 15 15 15 15 15 15 14 14 14 14 13 13 13 13 12 11 11 10 11 11
8 7 7 7 7 8 9 10 10 11 11 11 11 11 11 12 12 13 13 13 14 14 14 15 15 15 14 14 13 13 13 13 13 13 13 13 12 11 10 9 9 9 10
6 5 6 6 6 8 9 9 9 9 10 10 10 10 11 11 12 13 13 13 13 14 14 14 15 14 14 14 13 13 13 14 14 13 13 11 10 10 9 8 8 8 8
5 5 5 5 6 7 7 8 8 9 9 9 9 9 10 11 11 12 12 13 13 14 14 14 15 14 14 13 13 13 14 14 13 13 12 10 10 9 8 8 8 8 8
5 5 5 5 5 5 6 7 7 8 8 8 8 9 9 10 11 12 12 13 13 14 14 14 15 14 14 13 13 14 14 14 13 12 11 10 9 9 8 8 7 7 7
4 4 4 4 4 4 4 5 6 7 7 7 8 8 9 10 11 11 12 12 13 13 13 14 14 13 13 13 13 13 13 13 13 12 11 10 10 9 8 8 7 7 6
4 3 3 2 3 4 4 5 6 7 7 7 7 8 8 9 10 11 12 12 13 13 13 14 13 13 13 12 13 13 12 13 12 12 11 11 10 10 9 8 8 7 7
3 2 2 2 3 3 4 5 5 6 6 7 8 8 9 9 9 10 11 13 13 14 14 14 13 13 12 12 12 12 12 12 12 12 12 11 10 10 10 9 9 9 8

GEFSMW_500_meanwind_180.txt.gz
Wind_Speed
22 22 21 21 22 23 23 23 23 24 24 24 25 25 26 26 26 26 26 26 26 27 28 29 29 30 31 31 30 29 29 28 29 29 29 29 29 29 29 29 28 29 29
22 21 21 21 21 22 23 23 23 24 24 25 25 26 26 26 26 26 27 27 27 28 28 28 28 28 29 29 29 29 29 29 29 29 30 29 28 28 28 29 28 27 28
22 22 22 22 21 22 22 23 23 24 24 25 25 26 27 27 27 27 28 28 28 28 28 28 28 28 28 29 29 29 29 30 29 29 29 29 28 28 27 27 27 27 27
21 22 23 22 22 22 23 24 24 24 24 25 26 27 27 28 28 29 29 28 27 27 28 28 29 29 28 28 29 29 29 29 29 29 29 29 28 27 26 26 27 28 28
20 22 22 22 23 23 24 24 24 24 25 26 27 27 28 28 28 28 28 27 27 27 28 28 28 28 29 29 28 28 28 28 28 28 27 27 26 26 26 25 27 28 28
22 23 23 23 23 24 24 24 24 25 26 26 27 28 28 28 27 26 26 27 27 26 27 28 28 28 29 29 27 27 27 27 26 26 26 26 26 26 26 26 26 27 28
23 23 24 23 23 23 24 24 24 25 25 26 26 25 25 26 26 26 27 27 26 26 27 27 27 28 28 27 26 26 25 25 25 25 25 25 25 26 26 26 26 26 26
23 23 23 23 23 24 24 24 25 25 25 25 25 25 25 25 25 26 26 26 26 26 26 26 26 26 26 25 25 24 23 23 23 23 23 23 24 25 25 25 25 25 25
22 22 22 22 22 23 24 24 24 24 24 24 24 26 25 25 25 26 25 25 24 25 25 24 24 24 24 24 24 23 22 23 22 22 22 22 22 23 24 24 24 24 25
22 22 22 21 21 22 23 23 22 22 22 23 24 25 25 25 24 25 25 24 24 24 24 24 23 23 23 22 22 21 21 21 21 21 21 21 22 23 23 24 24 24 24
23 22 22 21 20 20 21 21 21 22 22 23 23 23 23 23 23 23 24 24 24 24 23 23 22 22 21 21 21 21 20 20 21 21 21 22 22 22 23 23 23 23 23
22 21 21 20 19 19 20 20 21 21 22 22 22 22 21 21 22 22 23 23 23 23 21 22 21 21 21 20 20 20 20 20 21 22 22 22 22 21 21 21 22 23 23
21 20 21 20 19 18 18 19 19 20 21 22 22 21 21 21 21 20 20 20 20 19 20 20 19 19 19 20 20 20 21 21 22 22 22 21 21 21 21 22 22 23 23
20 20 21 20 18 16 17 18 18 20 20 20 20 20 20 20 19 18 19 19 19 19 19 18 18 18 18 18 19 20 21 22 21 21 21 20 20 20 21 21 22 22 22
19 19 19 19 17 17 16 18 18 19 19 19 19 18 18 18 18 17 18 18 17 17 17 17 17 18 18 18 19 20 21 21 20 20 19 19 19 19 20 20 20 20 20
19 18 18 17 17 17 16 17 18 18 18 18 17 17 17 17 16 16 16 17 16 17 17 17 17 18 18 19 19 20 20 20 19 19 19 18 18 19 19 19 18 18 17
18 18 16 16 16 16 16 16 16 16 17 17 16 16 15 15 15 15 16 16 17 17 18 18 18 18 18 19 19 19 19 18 18 18 18 18 17 17 17 17 17 17 16
16 15 15 15 15 15 14 15 15 15 16 16 15 14 14 15 15 15 16 17 17 18 18 17 18 18 18 18 19 19 18 18 17 17 16 16 16 17 17 17 16 15 15
16 15 14 13 13 13 13 14 15 15 14 14 14 14 14 15 15 15 16 17 17 17 17 17 18 18 19 19 19 18 18 17 17 16 16 16 16 16 16 15 14 13 12
13 13 12 12 11 12 12 13 13 13 12 12 13 13 14 14 14 15 16 17 17 17 17 17 18 18 19 19 18 17 17 16 16 16 16 16 16 15 14 14 13 12 11
12 11 10 10 11 10 10 11 11 11 10 11 12 13 14 14 14 15 16 16 17 17 17 17 18 18 18 18 17 17 16 16 16 16 16 16 15 14 13 12 12 11 10
11 10 9 9 9 9 9 10 10 10 10 10 11 12 13 13 14 15 16 16 17 17 17 17 17 18 18 18 17 16 16 16 16 16 15 14 14 13 12 12 11 10 10
10 8 7 7 8 8 8 9 9 9 9 10 10 12 12 12 13 14 15 16 16 17 17 17 17 18 18 18 17 17 16 16 16 15 15 14 13 13 12 12 12 11 10
8 7 7 6 7 7 8 8 8 8 9 9 10 11 11 12 13 14 15 15 15 16 17 17 17 17 18 18 17 16 16 16 15 15 15 14 14 13 12 12 11 11 11
7 7 6 5 6 6 7 8 7 7 8 9 9 10 11 12 13 14 15 15 16 17 17 17 17 17 18 18 17 17 16 16 16 16 15 15 14 13 13 12 11 11 12
6 5 5 5 5 6 7 6 6 6 7 8 9 11 11 12 13 14 14 15 16 16 17 17 17 17 18 18 18 18 17 16 15 15 15 15 14 14 14 13 13 14 14

GEFSMW_500_meanwind_186.txt.gz
Wind_Speed
17 17 18 19 19 20 21 22 22 21 20 21 21 21 21 21 22 23 24 25 26 26 26 27 27 27 27 27 27 26 27 27 28 28 27 27 27 27 27 27 27 27 27
17 18 19 20 21 22 22 22 20 20 21 21 20 20 21 22 24 24 25 25 26 27 27 28 28 27 27 27 26 26 27 26 27 26 26 26 26 27 27 27 27 27 27
18 18 19 20 21 20 20 20 20 21 20 20 20 21 22 23 24 24 25 25 27 27 27 27 27 27 26 26 26 26 26 26 26 26 26 26 25 25 26 27 27 27 26
19 19 19 19 20 19 19 19 20 19 20 20 21 22 23 24 24 24 25 25 25 25 26 26 26 26 25 25 26 26 26 25 25 25 25 25 25 24 24 25 25 25 25
19 18 19 20 19 18 19 20 19 19 20 21 21 22 23 24 24 24 25 25 25 25 25 25 25 25 25 25 26 25 25 24 24 24 24 24 24 24 23 23 24 25 25
18 20 19 18 18 18 18 18 19 19 19 20 21 22 23 23 23 24 25 26 26 26 26 26 24 24 24 24 25 24 24 23 23 23 23 23 23 24 23 22 23 24 25
18 19 19 17 18 18 18 17 17 18 19 19 20 21 21 22 23 24 25 25 26 25 25 25 24 23 23 23 23 23 23 23 22 22 22 22 23 23 23 23 23 24 25
19 19 19 18 18 18 18 18 18 18 19 19 20 21 22 23 23 24 24 24 25 24 24 23 23 22 22 22 22 22 22 22 22 22 22 21 22 22 22 22 22 23 24
17 17 17 17 17 17 18 19 19 20 20 20 20 21 22 23 23 23 24 24 24 24 24 23 22 21 21 21 21 21 21 21 22 21 22 22 21 22 22 21 21 22 23
16 16 16 17 18 18 18 19 20 20 21 21 21 21 22 23 23 23 23 24 23 23 21 21 20 21 21 21 21 21 22 21 21 21 21 21 21 21 20 20 21 22 22
14 14 15 16 17 17 17 18 20 20 20 20 21 21 21 22 22 22 22 22 21 20 20 19 19 19 20 20 20 20 21 21 21 21 21 21 20 21 21 21 21 22 22
15 14 14 15 16 17 18 18 19 20 20 20 21 21 20 21 21 21 21 20 19 19 18 18 18 19 19 20 20 20 20 20 20 20 20 20 21 20 20 20 21 22 22
16 14 15 16 16 17 17 18 19 19 20 20 21 21 21 20 20 20 19 19 19 18 18 18 18 19 19 19 19 20 20 19 19 19 19 20 20 19 19 19 20 21 21
16 16 16 15 15 16 17 17 18 18 19 19 19 19 19 19 19 18 18 18 18 18 18 18 18 18 19 19 19 20 19 18 18 19 19 19 18 18 19 19 20 21 21
15 15 15 14 15 15 16 16 17 18 17 18 18 18 17 17 17 17 17 17 17 17 18 17 18 18 18 19 19 19 19 19 19 18 18 18 18 18 19 19 19 20 20
14 14 14 13 14 15 15 15 16 16 16 16 16 15 15 15 15 15 16 17 17 17 18 18 18 18 18 18 18 17 18 18 18 18 18 17 17 17 17 18 18 18 19
13 12 13 13 13 14 15 14 14 15 14 14 14 14 14 15 15 16 16 17 17 17 18 18 18 18 18 17 17 17 17 17 17 18 17 17 17 17 17 17 17 16 16
12 12 12 12 13 13 13 13 13 13 13 13 13 14 15 15 15 15 15 16 16 17 17 17 17 17 17 17 17 18 18 17 17 18 17 17 16 16 17 16 16 15 14
12 12 12 12 12 12 11 11 12 12 13 12 13 13 14 14 14 14 15 16 15 15 16 16 16 17 17 17 17 18 18 17 17 17 17 17 16 16 15 15 15 14 14
11 11 11 12 12 11 11 10 11 11 11 11 12 12 12 13 13 14 15 15 15 15 15 15 16 16 17 17 17 17 17 17 17 17 17 16 16 15 15 14 14 13 13
11 10 10 10 10 10 10 9 9 9 9 10 10 10 10 11 12 13 13 14 14 15 15 16 16 17 17 17 17 17 17 17 17 17 17 16 15 15 14 14 14 13 12
10 10 9 9 9 8 8 8 7 7 7 8 9 10 10 11 12 12 13 14 14 15 15 16 16 17 17 17 17 17 16 16 17 17 17 16 15 14 14 13 13 13 12
8 8 7 7 7 6 5 6 6 7 7 8 9 9 10 11 11 13 14 15 15 15 16 16 16 17 17 17 17 17 17 17 17 17 16 15 15 14 14 13 13 13 13
6 6 6 6 5 4 4 6 6 7 7 8 8 8 9 11 12 13 14 14 15 15 16 16 17 17 17 17 17 18 18 17 17 16 16 16 16 15 14 14 14 14 14
5 5 5 5 4 3 3 4 5 6 7 7 7 8 9 11 12 13 14 14 15 15 16 16 17 17 18 18 18 18 18 17 17 16 16 16 16 16 16 16 15 15 15
4 4 3 2 2 2 2 3 4 6 7 7 7 8 9 11 12 13 14 15 15 16 16 16 17 17 18 18 18 18 18 18 18 18 17 17 17 17 16 16 16 16 16

GEFSMW_500_meanwind_192.txt.gz
Wind_Speed
18 18 17 17 17 17 18 19 19 19 19 19 20 21 21 21 21 21 21 22 23 24 24 25 25 26 26 26 26 26 26 26 27 27 27 28 28 28 28 28 28 28 29
19 19 19 19 18 18 19 19 20 20 20 20 20 22 22 21 21 21 22 23 23 24 25 25 25 26 26 25 26 26 26 26 26 26 26 27 27 27 28 28 28 28 28
20 19 19 19 19 19 19 19 20 20 19 19 19 20 21 21 22 22 23 23 23 24 25 26 26 26 26 25 25 25 25 25 25 26 26 25 25 26 27 27 27 27 28
19 19 19 20 20 19 19 19 20 20 19 20 20 20 21 22 22 22 23 23 24 25 25 25 25 25 25 24 24 24 24 24 24 24 25 26 26 26 26 27 27 27 28
19 20 20 20 20 19 19 20 21 20 20 19 19 20 21 21 21 22 22 23 24 24 25 25 25 25 25 24 24 24 24 24 24 25 26 26 26 26 26 27 27 27 27
19 19 19 20 20 19 19 20 21 21 21 21 20 20 20 20 21 22 23 23 24 25 25 26 25 24 24 24 24 25 25 25 25 26 26 26 25 26 26 26 26 26 27
18 19 19 20 20 19 20 21 22 21 20 20 20 21 21 21 22 22 23 24 25 25 25 25 24 24 24 24 24 25 25 25 25 25 26 25 25 25 25 25 25 26 26
18 19 19 19 19 19 20 21 22 22 22 21 20 21 22 22 23 23 23 24 24 24 24 24 24 24 24 24 24 24 25 25 25 25 25 24 25 25 24 24 24 24 24
19 19 18 19 19 19 20 20 21 21 21 22 22 22 22 23 23 23 24 24 23 23 23 24 24 24 24 24 24 24 24 24 24 24 24 24 24 24 24 23 23 23 23
19 18 18 18 18 18 20 21 20 20 21 22 22 22 23 23 23 23 22 22 22 22 23 23 24 24 24 23 23 23 24 23 23 24 24 24 24 24 24 23 23 23 23
17 17 17 17 17 18 19 19 20 20 20 21 21 22 22 23 22 21 22 22 21 22 22 23 23 22 23 22 22 22 23 23 23 23 24 24 24 23 23 23 23 23 22
16 16 16 16 17 18 19 19 19 20 20 20 20 21 21 21 21 21 21 22 22 22 22 22 22 21 21 22 22 22 22 22 23 23 23 23 23 23 22 22 23 23 22
15 16 16 17 17 18 19 19 18 19 19 19 19 19 19 19 20 20 21 21 21 21 21 21 21 21 21 22 22 22 23 23 23 23 23 22 22 22 22 22 22 22 22
15 16 17 17 17 17 17 17 18 19 19 18 18 18 18 18 19 19 19 19 19 20 20 20 20 21 21 22 23 23 23 23 23 22 22 22 21 22 22 22 21 21 21
16 16 17 17 17 17 17 17 17 17 17 17 17 17 17 17 18 18 18 18 19 19 19 19 20 21 21 22 22 21 21 21 21 22 22 23 22 22 22 20 20 21 21
16 16 16 17 17 16 16 16 16 16 16 17 17 17 16 16 17 17 18 18 19 18 19 19 19 19 20 20 20 20 20 20 20 21 22 22 22 22 21 20 19 19 20
17 16 16 17 16 16 15 15 15 15 15 16 16 15 15 15 16 17 17 18 18 18 18 18 19 19 19 19 19 19 20 19 19 20 21 21 20 20 20 19 19 19 20
17 16 15 15 15 14 13 13 13 14 14 14 14 13 14 15 15 16 16 17 18 17 17 18 19 19 19 19 18 19 19 19 19 19 20 19 19 19 18 18 19 19 19
16 14 14 13 13 12 12 12 13 13 13 13 12 13 13 13 14 14 15 17 17 17 17 18 18 19 19 19 19 19 19 19 19 19 18 18 18 18 18 18 18 18 18
14 14 13 12 12 12 12 12 12 12 12 12 12 12 12 12 13 14 15 16 17 17 17 18 18 18 18 18 19 19 19 18 18 18 18 18 18 19 19 18 18 17 18
14 13 12 12 11 11 10 10 10 10 11 12 11 11 12 12 13 14 15 16 16 17 17 18 18 18 19 19 19 19 19 18 18 18 18 18 19 18 18 18 18 17 17
13 12 11 11 10 10 9 10 10 10 10 10 11 11 12 12 13 14 15 15 16 16 17 17 18 18 19 19 19 19 19 19 19 18 18 19 19 19 18 18 18 17 16
10 10 10 10 9 9 9 9 9 9 9 9 10 11 11 12 12 13 14 15 16 17 17 18 18 19 19 19 20 20 21 20 19 19 19 19 19 19 20 20 19 18 17
10 10 9 9 8 8 9 8 9 9 9 9 10 10 10 10 11 12 14 14 15 16 16 17 18 19 19 20 21 21 21 21 20 20 21 21 21 21 20 19 19 19 19
9 9 8 7 7 7 7 7 8 8 8 9 9 9 10 11 12 13 14 15 15 16 17 17 18 19 19 20 21 22 22 22 22 22 22 22 22 21 21 21 20 20 19
6 6 6 6 6 6 6 6 7 7 8 8 9 9 10 11 12 13 14 15 16 17 17 18 19 20 20 21 22 22 22 22 23 23 23 23 23 23 22 22 21 20 20

GEFSMW_500_meanwind_198.txt.gz
Wind_Speed
19 19 20 20 20 20 20 20 20 21 20 20 21 22 23 23 23 23 24 24 24 25 25 24 24 24 24 25 25 25 24 24 25 25 25 25 26 26 26 26 27 27 28
20 20 20 20 20 19 19 20 21 21 21 21 22 23 23 24 24 24 25 25 24 24 24 24 24 23 23 23 23 23 23 23 23 23 23 24 25 25 26 26 27 27 28
19 20 20 21 20 20 20 21 21 21 22 23 24 23 23 24 24 24 24 24 24 24 24 23 22 23 23 23 23 23 24 24 24 24 24 24 24 25 25 26 26 27 27
20 20 21 21 20 21 21 21 21 22 23 23 23 23 23 23 24 24 24 24 24 23 23 23 23 23 23 23 24 24 24 25 25 25 24 24 24 24 23 25 26 27 27
20 21 21 20 20 21 21 21 21 23 24 24 23 23 24 24 24 25 25 24 24 24 24 24 23 23 23 23 23 24 24 24 23 24 24 24 24 24 24 25 26 27 28
20 20 20 20 20 21 21 22 22 23 24 25 24 25 24 24 24 24 24 23 24 24 24 24 24 24 24 24 24 23 23 23 23 24 25 25 24 24 25 25 26 27 27
20 20 20 20 20 20 21 21 22 22 23 24 24 25 25 24 24 24 22 22 23 23 24 24 25 25 25 25 24 23 23 23 23 24 25 25 25 25 25 26 26 26 25
20 20 19 19 20 20 21 21 21 22 23 24 25 24 24 23 23 23 22 21 22 23 24 25 25 25 25 24 23 24 23 24 24 24 24 24 24 25 24 25 25 25 25
20 20 19 19 20 20 20 21 22 22 23 24 24 24 23 22 22 22 22 21 21 22 24 24 24 24 23 22 22 22 23 24 24 24 24 25 25 24 24 24 24 24 24
18 19 19 19 20 20 20 21 22 22 23 23 23 23 23 22 22 22 22 21 21 22 22 24 23 22 22 21 22 22 23 24 24 24 24 24 24 24 23 23 23 23 24
18 18 18 19 19 20 21 21 21 21 21 21 22 22 21 21 21 21 21 21 21 21 22 22 21 21 22 22 21 22 22 23 23 23 24 23 24 23 23 23 23 23 23
19 18 18 18 19 19 20 20 20 20 20 20 20 20 19 19 19 20 19 20 20 21 22 21 21 21 21 21 21 21 23 23 22 22 22 22 23 23 23 23 23 23 23
17 18 18 18 18 18 18 18 18 18 19 19 19 18 18 18 18 18 18 18 19 20 21 21 20 20 20 20 21 21 22 22 22 22 22 21 22 22 23 23 22 23 23
16 16 17 16 16 16 16 16 17 17 18 18 18 18 17 17 17 17 17 17 17 18 19 20 20 20 20 20 20 21 21 21 21 21 20 20 21 22 22 22 22 22 22
14 14 14 14 15 15 15 16 16 17 17 17 17 17 16 16 17 17 17 16 16 18 19 19 20 20 20 20 20 20 20 19 19 19 19 19 20 20 21 21 21 21 22
13 13 13 14 14 14 15 16 15 16 16 16 16 16 15 15 15 15 15 15 16 17 18 19 19 19 19 20 20 20 20 19 19 19 19 20 20 21 21 21 21 21 22
13 13 13 14 14 14 15 15 15 15 15 15 15 15 14 15 14 14 14 15 16 17 17 18 19 19 19 20 20 21 20 20 20 20 20 21 21 21 21 20 20 21 21
13 13 13 13 13 13 14 14 14 14 14 14 13 13 14 14 14 14 14 15 16 17 17 18 18 19 19 20 20 20 20 20 20 20 21 21 21 21 20 20 21 21 21
13 13 13 13 13 13 14 14 13 13 12 12 13 13 14 14 13 13 14 14 15 16 17 18 18 18 19 20 20 20 21 20 20 20 20 20 20 20 20 20 20 20 20
12 12 12 13 13 12 13 12 11 11 11 12 12 13 13 12 12 13 12 13 14 16 17 17 18 19 19 19 20 20 20 21 21 21 20 20 20 21 20 20 20 21 20
10 11 11 11 11 10 10 10 10 10 11 11 11 11 11 11 11 12 12 13 15 16 17 17 17 18 19 19 21 21 21 21 21 20 20 20 21 21 21 21 21 21 20
9 9 9 9 9 9 9 8 9 9 9 10 10 10 10 11 11 12 12 14 15 16 16 16 17 18 19 20 20 21 22 22 21 21 21 21 20 20 20 20 20 20 20
8 8 9 9 8 8 8 8 8 8 9 9 10 10 11 11 11 12 13 14 15 16 16 16 17 18 19 20 21 21 22 22 21 21 21 20 20 20 20 20 20 20 20
8 8 9 8 8 8 8 8 8 8 9 10 10 10 11 11 11 12 13 14 15 16 16 16 17 18 19 20 21 21 21 21 21 21 21 21 21 21 21 21 21 21 20
8 8 8 8 8 8 8 8 8 9 9 10 11 11 11 11 12 13 14 15 15 15 16 17 18 19 20 20 21 21 21 21 22 22 21 21 22 22 22 22 21 21 21
8 8 7 7 7 7 6 7 7 8 9 10 11 11 10 11 12 13 14 15 15 16 17 17 18 18 20 21 21 22 22 23 23 24 23 22 23 23 23 22 22 22 21

GEFSMW_500_meanwind_204.txt.gz
Wind_Speed
21 21 21 21 21 20 20 20 21 22 22 22 21 21 22 23 23 24 25 26 26 26 26 26 26 26 26 26 26 25 25 25 25 24 23 24 24 24 24 24 25 25 26
22 23 22 22 22 21 21 21 21 21 21 22 22 23 23 23 24 25 26 26 26 27 27 26 26 26 26 26 25 26 26 26 25 24 23 24 24 25 25 25 25 25 26
23 24 24 23 22 21 20 20 20 20 21 21 23 24 24 24 24 25 26 26 26 26 27 28 27 27 27 26 25 25 25 25 25 24 24 24 24 23 24 24 25 25 25
23 24 23 22 22 21 20 20 20 20 21 21 23 24 25 25 25 26 26 26 26 27 27 27 27 27 27 27 26 25 25 26 25 25 25 25 24 23 22 23 24 25 25
23 23 23 22 21 21 21 21 21 21 21 22 23 24 25 25 26 25 25 25 26 26 25 26 27 27 27 27 26 26 25 25 25 25 25 25 24 24 23 23 23 24 24
23 23 22 22 22 21 21 21 21 22 22 23 24 25 25 25 26 26 25 26 26 26 25 25 25 26 26 25 25 25 25 24 24 25 25 24 24 25 25 24 23 23 24
24 22 22 22 22 22 21 22 22 23 23 23 24 25 25 25 25 25 26 26 25 25 24 24 24 25 26 26 26 25 24 24 24 24 24 25 25 25 25 25 24 24 23
23 23 23 22 22 22 22 22 22 22 23 24 24 23 24 24 25 25 26 26 26 25 23 24 24 24 25 25 25 25 24 24 24 24 25 25 25 25 25 24 24 24 24
24 24 24 22 21 21 22 22 22 21 22 22 22 23 24 24 24 24 25 24 24 23 23 23 23 23 24 24 24 24 24 24 24 25 25 25 25 25 25 25 25 24 24
24 25 24 21 21 21 21 22 21 21 21 22 22 22 23 23 23 23 22 22 22 23 23 23 24 23 23 23 24 24 23 24 25 25 25 25 25 25 25 25 25 25 25
24 24 22 21 20 21 20 21 21 21 21 21 21 21 22 22 22 21 20 21 22 23 23 23 23 23 23 23 23 24 24 24 25 25 25 26 25 25 25 25 25 25 25
23 23 21 21 21 20 20 20 19 19 20 21 21 20 21 21 20 19 20 21 21 22 22 22 22 23 23 24 24 24 24 24 24 24 25 24 25 25 24 24 24 24 24
22 22 21 21 20 19 19 18 19 19 19 20 20 20 21 20 19 19 20 21 21 21 21 21 22 23 24 24 24 23 23 23 23 23 23 23 23 24 24 24 24 24 24
20 20 20 18 17 18 18 18 19 19 19 20 20 19 19 19 19 19 20 20 21 21 20 21 21 23 24 24 24 23 22 23 23 23 23 23 23 23 23 23 24 24 24
18 18 18 17 18 18 18 19 18 19 19 19 19 19 19 18 18 19 19 20 20 20 20 21 21 22 23 24 24 23 23 24 24 23 23 23 23 22 23 23 23 23 23
16 17 16 16 17 18 18 18 18 18 18 18 18 18 18 17 18 18 18 19 19 20 20 21 21 22 23 23 23 23 24 23 24 23 23 23 23 23 23 23 23 24 24
16 17 17 17 16 16 17 16 16 16 16 17 17 17 17 16 16 16 17 18 18 19 20 21 21 22 22 22 22 23 24 23 23 23 23 23 23 23 23 23 23 24 24
15 15 16 15 15 15 16 16 15 15 15 15 15 16 15 15 16 15 16 16 18 19 19 21 21 21 22 22 23 23 24 24 23 23 23 23 23 23 23 24 24 24 24
14 14 13 13 14 14 14 13 13 13 13 13 14 14 14 14 14 15 15 16 17 18 19 21 21 21 22 22 22 22 23 24 24 24 24 24 24 24 23 24 24 24 24
13 12 12 12 12 13 12 12 12 12 12 12 13 14 14 14 14 15 16 17 17 18 20 20 21 21 21 21 22 23 24 25 25 25 25 24 24 24 24 23 23 24 24
12 13 12 12 11 12 12 12 12 12 13 12 13 13 14 14 14 15 16 17 18 19 20 20 21 21 21 21 23 24 25 25 26 25 24 24 23 23 22 22 23 23 23
10 12 12 12 11 11 11 11 12 12 12 13 13 14 14 14 15 15 16 17 18 20 20 20 21 21 22 22 23 24 25 25 26 25 25 24 22 22 23 23 23 23 22
9 10 11 11 11 11 11 11 11 12 12 12 13 14 14 15 15 16 17 18 19 20 20 21 21 21 22 22 22 23 24 24 25 25 25 24 23 23 24 23 23 22 22
9 9 10 10 10 9 11 11 11 12 13 12 13 13 14 15 16 17 17 18 19 19 20 20 20 21 21 21 22 23 24 25 25 26 26 25 25 24 24 23 22 22 22
10 9 10 10 9 11 11 11 11 12 13 13 13 13 14 15 15 16 17 18 18 19 19 20 20 21 22 23 23 24 24 24 25 25 25 25 25 25 24 24 24 23 22
9 8 8 9 9 10 10 10 11 12 12 13 13 14 15 16 17 18 18 18 19 19 19 20 20 21 23 24 24 24 24 25 25 25 25 25 26 26 26 25 24 24 22

GEFSMW_500_meanwind_210.txt.gz
Wind_Speed
18 19 20 20 20 19 19 19 19 18 18 18 18 18 19 20 20 20 20 20 21 20 21 22 22 22 22 22 23 24 24 24 23 22 22 22 22 23 23 24 24 24 25
19 19 20 20 20 20 19 20 19 18 18 19 19 19 19 20 21 21 20 21 20 21 21 22 23 23 23 24 24 24 24 23 23 23 23 23 23 24 23 24 23 24 24
20 20 20 20 21 20 20 20 20 19 18 18 19 19 20 20 20 21 21 22 22 22 22 21 22 23 24 24 24 24 23 23 23 24 23 23 22 23 23 23 23 23 24
22 21 20 20 20 20 20 21 20 20 19 19 18 19 20 20 20 20 21 22 21 21 20 21 22 23 23 23 23 23 22 22 23 23 22 22 22 22 22 23 24 24 23
23 23 21 20 20 21 21 21 21 21 19 19 19 20 19 19 19 19 20 21 21 21 20 21 23 23 23 23 23 23 22 22 22 23 23 22 22 22 22 22 23 24 24
22 22 20 21 22 21 21 21 21 21 20 19 19 19 19 19 20 20 21 21 21 21 20 21 22 22 22 21 22 22 22 22 22 23 23 22 23 23 22 22 23 23 24
22 21 20 21 20 20 21 21 21 21 20 20 20 19 20 20 21 21 22 21 21 21 21 21 21 21 21 21 21 21 22 22 22 22 23 23 23 23 23 22 22 23 24
22 22 22 21 20 20 20 21 21 21 21 21 21 21 22 21 21 22 21 21 20 20 21 22 21 21 20 21 22 22 22 22 22 23 23 24 23 23 23 24 23 24 24
20 20 20 20 21 21 19 19 20 21 20 21 22 22 22 21 21 21 21 21 20 19 20 21 22 21 21 21 22 22 22 23 23 23 23 23 23 23 24 24 24 23 23
21 20 19 19 20 18 17 18 19 20 20 21 21 22 23 22 20 20 20 21 20 20 20 21 21 21 22 23 23 22 23 23 23 22 22 23 23 24 24 24 24 23 22
21 22 21 21 20 18 17 18 18 19 20 20 21 22 22 20 19 19 19 18 19 19 20 20 20 21 22 23 22 22 22 23 22 22 22 22 23 23 24 23 22 22 22
21 21 20 19 19 18 16 16 17 18 19 20 20 20 19 18 17 17 17 17 18 19 19 19 20 21 21 21 21 22 22 23 23 23 22 22 22 23 23 23 23 23 23
19 18 18 18 18 17 16 16 16 17 18 18 18 17 18 17 17 16 16 17 18 18 19 19 20 20 20 20 20 22 23 23 23 23 22 22 23 23 23 23 23 23 23
18 17 17 17 17 17 16 15 14 15 16 16 16 17 16 16 16 16 16 17 17 18 19 20 20 20 20 20 21 22 23 22 22 22 22 23 23 23 24 24 23 23 23
15 15 15 15 15 15 15 13 13 13 14 15 15 16 15 15 15 15 16 17 17 17 19 20 20 20 20 20 21 22 22 21 22 22 23 23 24 24 24 23 23 23 23
14 14 13 13 13 13 14 13 12 12 13 13 14 15 15 15 15 15 16 17 17 17 18 19 19 19 20 21 21 21 21 21 22 22 23 24 24 24 23 23 22 22 22
14 13 12 11 11 12 12 11 12 13 13 13 13 14 14 13 13 15 16 16 16 17 18 19 18 19 20 20 21 21 21 22 22 23 24 24 24 23 23 22 22 22 22
13 12 12 11 10 10 11 12 12 12 12 12 13 13 13 12 13 14 15 16 17 18 18 18 18 18 19 20 21 21 22 23 23 23 24 24 23 22 21 21 22 23 23
11 10 10 10 10 10 11 12 11 11 11 12 12 12 13 13 14 15 15 16 17 17 17 17 18 18 19 20 21 22 22 23 23 23 24 24 23 22 22 23 23 23 23
9 9 9 10 10 10 10 10 11 11 11 11 11 11 12 13 14 15 15 16 16 16 17 18 19 19 20 21 22 22 22 23 23 23 24 23 23 23 23 23 23 22 22
9 9 9 9 10 9 10 10 10 10 10 11 11 12 12 13 14 15 16 16 16 16 17 18 19 20 20 21 21 22 22 22 23 23 23 23 23 24 24 23 23 22 22
8 8 9 10 9 9 10 9 9 10 11 11 11 12 13 14 15 15 16 16 16 17 18 18 19 20 21 21 21 22 22 22 22 23 23 23 23 24 23 23 23 22 21
9 9 9 9 9 9 9 9 10 10 11 11 12 13 13 14 14 15 16 16 16 17 18 19 20 20 21 21 21 22 23 23 23 23 24 24 24 24 23 23 23 22 21
9 9 9 8 8 8 8 9 10 10 11 12 12 13 14 14 14 14 15 16 17 17 18 20 20 21 20 21 22 22 23 23 24 24 25 25 24 24 23 23 23 22 21
8 9 8 8 8 8 8 9 10 11 11 11 12 13 13 13 14 14 15 16 17 18 19 20 21 21 21 22 22 23 23 23 24 24 25 25 24 23 23 22 22 21 21
8 8 7 8 8 8 8 9 10 10 11 11 12 12 13 13 13 14 15 16 17 17 18 20 20 21 21 22 23 23 23 23 24 24 25 25 24 23 22 22 21 21 20

GEFSMW_500_meanwind_216.txt.gz
Wind_Speed
21 21 21 21 21 21 21 21 21 20 21 22 22 21 20 19 19 19 20 20 21 21 21 22 22 22 22 22 22 23 24 24 24 24 24 24 24 25 24 24 25 24 24
21 21 21 20 21 21 22 21 21 20 20 20 20 20 19 19 19 19 19 21 21 21 21 21 22 22 22 22 22 23 24 24 25 25 24 25 25 25 25 25 25 25 25
20 20 20 20 21 22 21 20 20 18 18 18 19 18 18 18 18 19 19 20 20 21 21 21 21 21 21 22 24 24 24 24 25 25 25 24 24 25 25 25 25 25 26
20 20 21 22 22 22 20 19 19 19 19 19 19 18 18 19 19 20 21 21 20 21 21 22 22 21 22 23 23 24 24 24 24 24 25 25 25 25 25 26 26 27 27
22 22 22 22 23 22 21 19 20 20 19 19 20 20 20 19 19 21 21 22 22 22 22 21 21 22 23 24 24 24 24 24 24 24 25 25 26 26 26 26 27 27 27
22 22 22 23 23 22 21 20 20 20 20 20 20 21 20 20 20 21 21 22 21 21 21 21 21 22 23 23 23 23 24 24 23 24 24 25 25 25 25 25 26 26 26
21 22 23 22 22 22 21 20 20 20 20 20 21 21 21 22 22 22 22 22 22 22 22 22 22 22 22 23 23 23 24 24 24 24 24 24 24 24 24 24 25 25 25
19 21 22 21 21 21 20 20 20 21 21 21 21 21 21 22 22 22 23 23 22 22 22 22 22 22 23 23 23 23 23 23 23 23 23 23 23 24 24 24 24 25 25
19 20 20 20 20 20 19 20 21 21 20 21 21 21 21 21 21 22 22 21 21 22 22 22 22 23 23 23 23 23 22 22 23 23 23 23 23 23 24 24 25 25 25
19 19 19 18 19 19 19 19 19 19 20 20 20 20 20 20 21 20 20 21 21 22 22 21 22 23 23 23 23 22 22 22 23 23 24 24 24 24 24 24 25 25 25
20 19 18 18 18 18 18 18 18 18 18 19 20 19 19 20 20 20 20 20 21 21 22 21 22 22 22 22 23 22 22 23 24 24 24 24 25 25 25 25 26 27 27
20 20 19 18 18 17 17 17 17 18 18 17 18 18 18 19 20 20 20 20 21 21 21 21 21 22 22 22 22 22 23 24 25 25 25 25 26 26 26 27 27 28 27
19 18 17 17 16 16 16 16 15 17 17 17 17 18 18 19 19 19 19 20 20 20 20 21 21 22 21 21 21 22 24 24 25 26 26 27 27 27 27 27 27 27 28
16 16 15 15 14 15 15 14 14 14 15 15 16 17 17 17 17 17 18 18 19 19 19 21 21 21 21 21 22 23 23 24 25 25 26 26 27 27 27 27 27 27 27
14 14 14 13 13 13 13 12 12 13 13 14 15 16 15 15 15 16 16 17 17 18 18 18 19 20 20 21 22 23 23 24 24 25 25 26 26 26 26 27 27 26 26
13 13 13 12 12 12 11 11 11 11 13 14 13 13 14 14 14 15 16 16 16 16 16 17 18 19 20 21 22 22 23 23 24 24 25 26 26 26 27 26 26 25 25
13 13 12 11 11 10 10 10 11 12 12 13 13 13 13 14 15 16 16 16 15 15 16 17 17 18 19 20 21 21 22 23 24 24 24 25 26 26 26 25 25 25 25
12 12 11 10 11 11 10 11 12 12 12 13 13 12 12 13 14 15 15 16 16 15 15 16 18 19 19 21 22 22 22 23 23 24 24 25 26 25 25 24 25 25 25
11 10 10 11 11 10 11 11 11 11 12 12 13 13 13 13 14 15 15 16 16 16 16 17 19 19 20 21 22 22 22 23 23 24 25 25 25 25 25 24 24 23 23
11 11 11 11 11 11 11 11 11 11 12 12 13 14 14 14 14 15 15 15 15 16 17 18 19 20 21 22 22 22 22 23 24 25 25 25 25 25 24 24 23 23 22
11 11 12 12 12 12 12 12 11 12 12 13 13 14 14 14 14 15 14 15 16 17 17 18 20 21 22 22 22 22 23 24 24 25 25 25 25 24 24 24 23 23 22
12 12 12 12 12 12 12 12 12 12 13 13 14 14 14 14 15 15 15 16 16 17 18 19 20 21 22 22 22 23 24 24 24 24 25 24 24 24 23 23 23 23 23
12 12 12 12 12 12 13 12 12 12 12 13 14 14 14 15 15 15 16 16 17 18 19 20 21 21 22 22 23 24 24 25 25 24 24 24 24 23 23 23 23 23 22
11 11 11 11 12 12 11 11 11 12 12 13 13 14 14 15 15 16 17 17 18 19 20 20 21 22 22 22 23 24 25 25 25 25 24 24 23 23 23 23 23 22 22
11 11 11 12 11 11 11 11 12 12 12 13 13 14 14 15 16 16 17 17 18 19 20 21 21 22 22 23 23 24 25 25 25 25 24 23 23 23 23 23 23 22 22
12 11 11 11 11 11 11 11 12 12 12 13 13 14 14 15 16 16 17 17 18 19 20 21 22 22 23 23 23 24 24 24 24 24 23 23 23 24 24 24 23 22 22

GEFSMW_500_meanwind_222.txt.gz
Wind_Speed
20 21 21 21 22 23 23 24 25 25 24 24 24 24 23 24 24 22 20 20 21 21 21 21 21 22 22 23 23 23 23 23 23 24 24 24 24 24 25 25 25 25 25
21 21 22 22 22 22 24 25 25 26 25 25 25 25 25 24 23 22 20 19 20 21 22 21 21 22 22 23 23 24 23 23 24 24 25 25 25 24 25 26 26 27 26
21 22 22 21 22 24 26 26 25 25 25 24 23 22 23 22 22 20 20 21 21 22 22 22 24 24 24 24 23 23 23 23 24 24 25 25 25 24 25 25 26 26 26
22 22 22 22 23 24 25 25 25 25 25 24 23 22 21 21 21 20 20 20 21 22 23 23 23 24 24 23 23 23 23 24 24 25 26 26 25 25 25 25 26 25 26
21 21 21 22 22 24 24 24 24 24 24 23 22 21 20 20 20 20 20 20 21 22 23 22 22 23 23 22 22 22 23 23 24 25 25 25 25 25 25 25 25 25 26
20 20 20 21 21 21 22 22 22 22 22 21 20 20 20 21 20 20 20 20 20 21 21 21 22 22 22 21 22 23 23 24 24 24 24 24 24 24 24 24 24 24 25
19 18 19 18 17 17 18 19 19 20 19 19 19 18 19 19 19 19 19 20 20 19 19 20 21 21 21 22 22 22 22 23 23 23 23 23 24 24 24 24 24 25 26
16 16 16 15 15 15 16 17 17 18 17 18 18 19 19 19 19 19 20 20 20 20 20 20 20 21 21 22 22 22 22 22 23 23 23 23 23 24 24 25 26 26 27
15 15 16 16 16 16 17 16 16 16 16 16 17 18 18 19 19 19 20 19 20 20 20 20 21 21 21 22 23 22 22 22 23 23 24 24 24 24 24 24 25 26 26
14 14 16 16 16 16 16 16 15 15 14 14 15 16 16 16 17 19 19 19 20 21 21 21 21 21 21 22 22 22 22 23 23 23 24 24 24 24 24 25 25 25 26
15 15 15 15 15 15 15 14 14 14 14 13 14 15 15 15 16 17 18 19 20 20 21 20 20 22 22 22 22 23 23 23 23 24 24 24 24 25 25 26 26 26 26
14 14 15 15 15 15 14 14 13 13 13 13 13 14 14 15 15 16 18 18 18 19 19 18 19 20 21 22 23 23 23 23 24 24 24 25 25 26 26 26 26 26 27
13 14 13 13 13 13 13 12 12 12 12 12 13 14 13 14 14 15 17 17 17 17 18 18 19 20 21 22 23 22 22 23 23 24 24 25 25 26 27 27 27 27 27
13 13 13 13 12 12 12 11 11 12 13 13 13 13 13 14 15 15 16 16 16 16 17 17 18 19 21 22 21 22 22 22 23 23 24 24 25 26 26 27 27 27 27
14 14 13 13 12 11 11 11 12 12 13 13 13 13 13 14 15 15 16 15 15 16 16 17 18 19 21 21 21 21 21 21 22 23 24 24 25 25 26 26 27 27 27
14 14 13 13 13 12 12 12 12 12 13 13 13 14 13 14 15 15 15 15 15 15 16 16 17 19 20 20 20 20 20 21 22 22 23 24 25 25 25 26 26 26 26
15 14 14 14 14 12 12 13 12 12 12 13 13 14 14 14 13 13 14 14 15 15 15 17 18 18 18 19 19 19 20 21 21 22 23 23 23 24 24 24 25 24 24
14 13 14 14 13 13 12 13 13 13 13 13 14 14 14 14 13 12 13 13 14 15 16 17 17 17 18 19 19 19 20 20 21 21 22 23 23 23 23 23 23 23 23
14 14 14 13 13 13 13 13 13 13 13 13 13 14 14 13 12 12 13 13 14 15 15 16 17 18 18 18 18 19 19 20 21 22 22 23 23 23 23 23 23 23 23
14 14 14 14 14 14 13 13 13 13 13 13 13 14 14 14 14 14 14 14 14 15 15 17 17 18 18 18 18 19 21 21 22 22 22 22 22 22 21 21 21 21 22
13 14 14 14 14 14 13 13 12 12 13 13 14 13 14 14 14 14 14 14 15 15 16 17 18 18 18 18 19 20 21 22 22 23 22 22 22 21 21 21 21 21 21
14 14 14 14 13 14 13 12 12 12 13 13 13 14 14 14 15 15 15 15 15 16 17 17 17 18 18 18 19 20 21 22 22 22 22 22 21 21 21 21 21 21 21
14 14 14 14 13 13 13 12 13 13 13 13 13 14 15 15 15 15 15 16 16 16 17 18 18 18 19 19 19 20 21 22 22 22 22 21 21 21 21 22 22 22 21
15 14 14 13 13 13 12 12 12 13 13 13 14 14 15 15 15 15 16 16 16 17 17 18 18 19 20 20 20 20 22 22 22 22 22 21 20 20 21 22 22 21 21
14 14 14 14 13 13 12 12 12 13 13 13 14 14 14 15 15 15 16 16 17 17 18 18 19 19 19 20 20 21 21 22 21 21 21 21 21 21 21 22 22 21 21
14 14 14 14 13 13 13 12 12 12 13 13 13 14 14 15 15 16 16 17 17 18 18 19 19 19 19 20 20 20 21 22 21 21 21 21 21 21 22 22 22 21 21

GEFSMW_500_meanwind_228.txt.gz
Wind_Speed
23 24 24 23 23 23 24 24 25 25 25 25 26 26 26 26 26 27 27 26 25 24 24 23 22 22 22 23 23 23 23 23 24 24 23 23 23 23 23 23 23 24 24
25 25 25 24 23 23 24 25 25 26 25 25 26 26 27 26 26 26 26 26 25 24 24 22 22 23 23 23 23 24 24 24 24 24 24 23 23 24 24 24 24 24 24
26 26 25 23 23 24 24 25 25 25 25 25 25 25 25 25 25 24 25 24 24 24 23 23 23 24 24 24 25 25 25 25 25 25 25 24 24 23 24 24 24 24 24
25 25 24 24 24 24 24 24 24 24 24 24 24 24 24 24 24 24 23 22 22 23 23 23 24 24 24 25 24 24 25 26 25 24 25 25 25 25 24 24 24 24 25
25 24 23 23 24 23 23 23 22 22 22 22 22 23 23 23 23 22 22 22 22 21 21 20 20 21 22 23 23 23 24 25 25 25 25 24 25 26 26 25 25 25 25
23 22 22 23 22 21 21 20 20 19 19 20 21 22 22 22 22 21 21 21 21 21 19 19 20 20 21 22 23 23 23 24 24 24 25 25 26 26 26 26 26 25 25
21 21 21 20 20 19 18 18 18 18 18 19 20 20 21 22 21 20 20 21 21 20 19 19 20 21 22 22 22 21 22 22 23 24 25 26 27 27 27 26 26 26 25
22 22 21 19 18 18 17 16 17 17 18 19 19 19 20 19 18 18 19 19 20 20 20 20 20 21 22 22 22 22 22 23 24 24 25 26 26 26 26 26 26 25 25
21 21 20 18 18 17 16 16 16 17 18 19 19 19 17 17 17 17 17 18 19 20 20 20 21 21 22 22 22 22 23 24 24 25 25 26 26 26 26 25 25 25 25
20 19 19 18 18 17 16 16 16 17 18 19 18 17 16 16 17 18 18 18 18 18 18 19 20 20 20 21 21 22 22 24 24 24 25 24 24 24 24 25 25 25 25
20 19 19 19 18 17 17 17 17 17 17 16 16 16 16 16 17 17 17 16 16 16 17 18 18 19 19 20 20 20 21 22 23 24 25 24 24 24 24 24 25 26 26
20 18 19 19 18 17 17 17 17 16 16 16 15 15 15 16 16 16 15 15 15 17 17 18 18 18 18 18 19 20 21 22 22 23 23 23 24 24 24 25 26 26 26
17 18 19 18 17 16 16 16 16 16 16 15 15 15 15 15 15 15 15 15 16 16 17 17 17 17 17 18 19 20 20 21 22 22 22 23 23 23 24 25 25 26 27
18 18 18 17 17 15 15 15 16 16 16 15 15 16 16 15 15 15 15 16 16 17 17 17 16 17 17 18 19 19 20 21 21 22 22 23 23 23 24 24 25 26 26
18 18 17 16 16 16 16 16 16 16 16 16 16 16 15 15 14 14 15 16 16 17 17 17 16 17 17 18 19 19 21 21 22 22 23 23 23 24 25 25 25 26 26
18 18 17 16 15 17 17 17 16 16 16 16 16 16 15 15 15 16 16 16 17 17 17 17 17 17 18 19 19 20 21 21 22 22 23 23 23 24 25 26 26 26 26
18 18 17 15 16 18 17 17 16 16 16 17 16 16 15 15 15 15 16 17 17 17 16 17 17 17 18 19 20 21 22 22 23 23 23 24 24 24 24 24 24 25 25
18 18 17 17 17 17 17 17 16 17 17 16 16 16 15 15 15 15 16 17 17 17 16 17 17 17 19 20 21 22 22 22 23 24 24 24 24 24 24 24 25 24 24
19 18 18 18 17 17 16 17 16 16 16 16 16 15 16 15 16 16 16 16 17 16 16 16 17 18 19 20 20 21 21 22 23 23 24 24 24 24 24 24 24 24 23
19 18 18 18 17 16 16 17 16 16 16 16 15 16 16 16 16 16 16 17 17 15 15 16 17 18 18 19 20 20 21 22 22 23 23 23 23 23 24 24 23 23 23
18 18 18 17 17 17 17 16 16 16 16 16 16 16 16 17 17 16 17 17 17 16 16 17 17 18 19 19 20 19 20 22 23 23 23 23 23 23 24 24 24 24 23
18 18 17 17 17 17 17 16 16 16 16 16 16 17 17 17 17 17 17 17 17 17 18 18 18 18 19 20 20 20 21 22 23 23 23 23 23 23 24 24 23 23 23
19 18 17 18 18 17 17 16 16 16 16 17 17 17 17 17 18 17 17 17 17 17 18 19 19 19 20 20 20 21 22 22 22 22 23 23 24 23 23 24 23 23 22
20 18 18 18 18 18 17 16 16 16 16 16 17 17 17 17 17 18 18 17 17 18 18 19 19 19 20 20 20 21 21 22 22 22 22 23 23 23 23 23 22 22 22
20 19 18 18 18 18 17 16 16 16 16 17 17 17 17 17 17 18 18 18 18 18 18 18 19 20 20 20 21 21 22 22 22 23 23 23 23 23 23 22 21 21 21
20 20 19 18 18 17 17 17 16 17 17 17 16 16 18 17 18 18 18 18 19 18 18 18 19 19 20 21 21 22 22 23 23 23 23 24 24 24 23 22 21 20 21

GEFSMW_500_meanwind_234.txt.gz
Wind_Speed
22 22 21 21 22 21 20 20 20 21 21 21 22 22 22 23 22 22 22 22 22 23 23 23 23 23 23 22 22 22 22 22 22 22 22 22 22 22 22 22 22 22 23
23 24 24 24 23 21 20 21 21 21 22 23 23 21 21 22 22 22 23 23 22 23 22 22 23 23 23 22 22 21 21 22 22 23 23 23 23 23 23 23 23 23 24
23 24 24 23 22 22 21 20 19 19 19 20 20 20 20 20 20 21 21 22 22 22 22 22 22 23 22 22 22 21 22 21 23 24 25 24 23 24 24 24 24 24 24
23 24 24 23 23 22 21 21 19 19 19 19 19 18 18 18 18 19 19 21 21 21 21 21 21 22 22 21 21 22 22 21 22 23 25 24 24 25 24 25 26 26 25
23 23 23 22 21 21 21 20 19 17 17 17 17 16 16 16 17 18 19 19 20 20 20 21 21 21 21 22 21 22 22 22 21 22 23 24 25 25 24 24 25 25 26
21 21 22 22 21 19 17 16 15 16 16 16 16 16 16 16 17 18 18 19 20 20 20 20 19 19 20 21 21 21 22 22 21 22 22 23 24 25 25 25 24 24 25
20 21 21 20 20 19 16 15 15 15 15 15 15 15 15 16 17 18 19 20 20 19 19 19 18 18 19 20 20 19 20 21 21 22 22 22 23 24 25 26 25 25 26
20 20 20 21 20 18 16 15 15 15 14 14 14 14 15 16 17 18 19 19 19 19 18 18 18 17 18 18 18 18 18 20 20 21 22 22 23 24 25 26 26 26 26
20 20 20 20 19 18 17 15 15 15 14 14 14 14 16 17 17 18 18 18 19 19 18 18 19 19 18 18 18 17 18 19 20 20 21 22 23 23 24 25 26 27 27
19 18 18 18 18 18 17 16 16 16 14 14 14 15 16 17 18 18 18 18 18 17 17 17 17 17 17 17 17 17 18 19 19 20 21 22 23 24 25 26 27 27 27
19 19 18 18 17 17 18 17 17 16 15 15 15 16 17 17 17 17 17 16 17 16 16 16 15 16 16 17 18 18 18 19 20 21 21 22 23 24 24 25 25 25 25
19 18 18 17 17 17 18 17 17 17 16 16 16 16 17 17 17 16 16 16 16 15 15 15 15 15 16 16 17 18 18 19 20 20 21 22 23 24 24 24 25 25 25
18 18 18 17 17 17 17 17 17 16 16 15 15 16 16 16 16 16 16 15 15 15 14 15 15 16 16 16 17 18 19 19 20 20 22 23 23 23 23 24 24 24 24
18 18 17 17 17 17 17 17 17 16 15 14 14 15 15 15 15 15 15 15 15 14 14 14 14 15 16 16 17 19 19 20 20 21 22 23 23 23 24 24 25 24 24
18 18 17 17 16 17 17 16 16 16 15 14 15 15 15 15 15 15 16 15 15 14 14 14 14 15 16 17 18 18 19 20 20 20 22 22 23 23 24 24 24 24 24
18 17 17 17 17 17 16 16 15 15 15 15 15 15 15 15 15 15 16 16 15 14 14 15 15 15 16 17 17 18 19 19 20 21 22 22 23 24 25 25 25 25 25
17 17 17 17 16 16 16 16 16 15 15 15 16 16 16 16 16 15 16 16 15 15 14 15 15 15 16 17 18 18 19 20 20 21 22 22 23 24 25 24 25 25 25
17 17 17 17 15 15 16 16 16 15 16 16 16 17 17 17 16 16 17 16 15 15 15 16 16 16 16 18 18 19 19 19 19 20 20 21 22 23 23 24 24 24 24
17 18 17 17 16 16 17 17 16 16 17 17 17 17 17 17 17 16 16 16 16 16 16 16 15 15 16 17 17 17 16 16 17 18 20 21 21 22 23 23 23 24 24
17 18 18 18 17 17 17 16 17 17 18 18 18 18 17 17 17 17 16 17 17 16 17 16 16 16 15 15 16 16 16 17 18 19 20 20 21 21 22 23 23 23 23
17 18 18 18 18 18 17 17 18 18 19 19 18 18 17 17 17 17 17 18 18 18 17 17 16 16 16 16 16 16 17 18 19 20 20 21 21 22 22 23 22 22 22
18 18 18 18 18 18 18 18 18 19 19 19 18 18 17 18 18 18 18 19 18 19 18 17 17 17 17 17 17 18 18 19 19 20 20 21 22 22 22 22 21 21 21
18 18 19 19 18 18 19 19 19 19 19 18 18 17 17 18 19 19 19 19 19 18 17 17 18 18 18 18 18 18 19 19 20 21 21 21 22 22 22 22 21 21 20
19 19 20 20 20 19 19 19 19 19 18 18 18 18 18 18 19 19 18 18 18 18 18 18 18 18 18 18 19 19 20 20 21 21 21 22 22 22 22 21 21 20 19
20 20 20 20 20 19 19 19 19 18 18 18 18 18 18 18 18 18 18 17 17 18 18 18 18 18 19 19 19 19 19 20 20 21 22 22 22 22 21 20 20 19 19
21 20 20 20 20 19 19 19 19 19 18 18 18 18 17 18 17 17 17 17 18 18 19 19 18 18 18 18 18 19 19 19 20 21 21 22 22 21 20 19 20 19 18

GEFSMW_500_meanwind_240.txt.gz
Wind_Speed
18 18 19 20 20 19 19 19 19 19 19 18 18 20 20 20 21 22 22 21 21 22 22 22 23 23 23 25 26 27 26 26 26 25 25 24 24 24 24 24 24 25 25
19 19 20 21 21 20 19 19 19 19 18 17 18 20 20 19 20 20 20 20 21 22 22 22 23 23 24 23 24 25 26 26 26 26 25 24 25 25 24 24 23 24 25
20 20 20 21 20 20 20 20 19 18 18 19 20 20 18 18 18 19 19 20 21 21 21 22 22 23 23 23 24 25 26 26 26 25 25 25 24 24 24 24 24 25 25
21 20 21 20 20 20 20 20 19 18 18 19 20 19 18 18 18 19 19 20 20 20 20 20 21 22 22 22 23 24 25 26 26 25 25 24 23 24 24 24 24 25 26
21 21 20 20 19 19 20 19 19 19 19 19 19 19 18 17 18 18 19 20 19 19 18 19 20 20 21 22 22 24 24 24 25 25 24 24 24 24 25 25 25 25 26
21 21 21 19 19 19 20 20 19 18 18 19 19 19 17 17 17 18 18 18 19 19 19 19 20 20 21 21 22 22 22 22 23 24 24 24 25 25 25 26 26 25 25
21 21 20 19 19 19 20 19 17 17 17 17 17 17 17 17 16 17 17 17 17 18 20 20 21 21 21 21 21 21 21 22 22 23 23 24 25 26 25 26 26 26 26
20 20 20 19 18 19 18 18 17 16 16 16 16 16 16 16 16 16 16 17 17 18 20 21 21 22 22 21 21 20 20 20 21 22 22 24 25 26 26 26 26 27 27
19 19 19 19 19 18 18 18 17 16 16 16 16 16 16 15 16 16 17 18 18 19 20 20 21 22 21 21 21 21 20 21 20 21 22 23 24 25 25 25 26 26 27
18 19 18 18 19 18 17 17 17 17 16 16 16 15 15 15 16 16 18 19 19 20 20 20 21 21 21 21 21 21 21 21 21 21 22 24 24 25 25 24 25 26 26
18 18 18 18 18 17 16 16 17 16 16 15 14 15 15 15 16 17 18 19 20 20 19 19 19 20 20 20 20 21 21 22 22 22 23 24 25 24 25 25 25 25 26
18 18 18 18 17 16 15 15 16 15 15 15 15 15 15 16 17 18 19 20 20 19 19 19 18 18 19 19 19 20 20 21 22 22 22 23 24 24 25 25 25 25 26
18 18 18 17 16 15 15 15 15 15 15 15 16 17 17 18 19 19 20 20 20 19 19 19 18 18 18 18 19 19 19 20 20 21 22 23 24 24 25 25 26 26 26
18 18 17 15 15 16 16 15 15 16 17 18 18 18 19 19 20 20 20 19 19 19 19 19 18 17 17 18 18 18 18 19 20 21 22 22 23 24 25 25 26 27 27
17 17 16 15 15 15 16 16 16 17 18 19 20 20 20 21 21 21 20 19 18 18 18 17 17 17 17 17 18 18 19 20 20 21 22 22 23 25 25 26 27 27 27
16 16 16 16 16 16 17 17 17 17 18 20 21 21 21 21 20 19 19 18 18 17 17 17 18 18 18 18 18 19 20 20 21 21 21 23 24 25 25 25 26 26 27
16 16 16 16 17 17 18 18 19 19 20 21 22 22 21 20 19 19 19 18 18 18 18 18 18 18 18 18 18 19 19 19 20 20 21 22 23 23 23 24 25 25 25
16 16 16 16 17 17 18 19 19 20 21 21 21 20 20 19 18 19 19 19 18 18 19 19 18 18 18 18 18 18 18 19 19 20 20 21 21 21 22 23 24 24 24
16 17 17 18 18 18 18 19 20 21 21 21 21 20 20 19 19 20 20 20 19 19 19 19 18 18 18 18 17 18 19 19 19 20 20 20 21 21 21 22 23 24 23
16 17 18 19 19 19 19 20 21 21 21 21 21 21 20 20 20 20 20 20 19 19 19 19 19 18 18 18 17 18 19 19 19 19 20 21 21 21 22 22 23 23 23
17 18 18 19 19 19 20 20 21 21 21 21 21 20 20 21 21 21 21 20 20 20 20 19 20 19 19 18 18 19 19 18 19 19 20 20 20 21 22 22 22 22 23
18 18 19 19 20 20 20 21 21 21 21 20 20 20 21 22 22 22 21 20 20 20 20 20 20 20 19 18 18 18 18 18 19 19 20 19 20 21 21 21 21 21 21
19 19 20 21 21 21 21 22 22 21 20 20 21 21 21 22 23 23 22 21 20 20 19 20 20 20 19 19 18 18 18 19 19 19 20 21 21 21 20 20 21 21 21
19 20 21 22 22 22 22 22 22 21 20 20 21 21 21 22 22 22 22 21 20 20 20 20 20 20 19 19 19 18 19 20 20 20 21 21 21 20 20 20 20 20 20
20 21 22 23 23 23 23 23 22 21 20 20 21 21 21 21 21 22 21 21 21 21 21 21 20 20 19 18 18 19 20 20 20 20 20 20 21 21 20 20 20 19 19
22 22 23 23 24 24 24 23 22 20 20 20 20 21 21 21 22 22 22 22 22 22 21 21 20 20 19 19 19 20 20 20 20 20 20 20 20 20 20 19 19 18 18

GEFSMW_500_meanwind_246.txt.gz
Wind_Speed
17 17 18 18 17 18 18 16 16 16 17 17 17 18 19 20 21 21 21 21 21 21 21 22 22 22 22 22 22 23 24 25 26 26 26 27 27 27 26 26 26 26 26
17 17 17 18 18 17 17 16 16 17 17 17 18 19 20 21 21 21 21 21 21 22 22 22 21 21 21 21 22 22 22 24 26 26 26 25 27 27 27 27 27 27 26
17 18 18 18 18 17 17 17 17 17 18 18 19 20 20 20 20 20 20 21 22 23 23 21 21 22 22 22 22 22 22 23 25 25 25 25 26 25 26 28 28 27 27
18 18 18 18 18 18 18 18 18 18 19 19 19 20 19 20 20 19 19 20 20 21 21 21 22 22 22 23 22 22 23 23 24 25 25 25 25 26 26 26 27 28 28
18 18 18 18 17 18 18 18 19 19 19 20 20 20 20 19 19 20 20 20 20 20 21 21 22 22 22 22 23 22 22 23 24 24 25 25 25 26 27 27 28 29 28
18 19 18 18 18 19 19 19 19 19 19 20 19 19 19 19 20 20 20 20 20 20 21 21 22 22 22 22 22 22 23 23 23 24 25 26 25 26 26 27 27 29 29
19 19 18 18 19 19 19 18 18 18 18 18 18 19 19 19 19 20 20 20 20 20 21 21 21 21 22 22 21 22 23 23 23 24 25 25 25 26 26 27 27 28 29
19 19 18 18 18 18 18 17 18 17 17 18 18 18 18 18 18 19 19 20 20 20 20 20 20 20 20 20 21 21 23 23 24 24 24 25 26 26 26 26 27 28 28
18 18 18 17 16 17 17 17 18 18 17 18 18 18 18 18 18 19 20 20 20 20 19 20 20 20 20 20 21 22 22 23 24 24 25 25 25 26 26 26 27 28 29
18 18 17 16 16 17 17 17 18 18 17 18 18 18 18 18 19 19 19 19 19 19 19 19 20 20 20 20 21 21 22 22 23 24 25 25 25 26 26 27 27 28 29
17 17 17 16 17 17 18 17 18 17 17 18 18 18 18 18 18 18 18 19 19 19 19 19 19 19 19 20 20 21 22 23 23 23 24 25 26 26 26 27 28 28 29
16 16 16 16 17 17 17 17 18 18 18 18 18 18 18 17 18 18 18 19 19 19 18 19 18 19 19 19 19 20 21 22 23 23 24 25 26 26 27 27 27 28 28
16 17 17 17 16 16 17 17 18 17 17 17 18 18 17 17 18 19 19 19 18 18 18 18 18 19 18 18 18 18 19 20 21 22 24 25 25 26 27 27 27 27 27
15 15 15 16 16 16 16 17 17 17 17 18 18 18 17 18 19 19 19 18 18 18 18 19 18 17 16 16 16 16 17 18 20 21 23 23 24 25 26 26 26 26 26
15 15 15 16 17 17 17 17 17 17 17 18 18 18 18 19 19 19 18 18 17 17 18 18 18 17 16 15 15 16 16 17 18 19 20 21 22 23 24 24 24 24 25
15 15 15 16 17 17 17 18 18 18 18 19 18 18 19 19 19 18 18 17 17 18 18 18 17 17 16 16 16 16 16 17 18 19 19 20 20 21 22 22 23 23 24
15 15 16 17 17 18 18 18 19 19 19 19 18 18 19 20 19 19 19 18 18 18 18 18 18 17 17 17 17 17 17 17 17 18 19 20 21 21 21 21 22 23 24
16 16 16 17 18 18 18 19 19 20 20 19 19 20 20 20 19 19 18 18 18 18 18 18 18 17 17 18 18 17 17 18 18 19 20 20 21 21 21 21 22 22 22
16 16 16 17 18 18 19 19 19 20 19 19 19 19 20 20 19 19 18 17 17 18 18 18 18 18 18 17 18 18 18 18 19 20 20 20 21 21 22 22 22 22 23
16 16 17 17 18 18 19 19 20 20 19 19 19 20 20 20 20 19 18 17 17 17 18 19 18 18 18 18 17 17 18 18 18 19 20 20 20 21 21 21 21 21 21
16 17 17 18 18 19 19 19 20 20 19 19 20 20 20 20 20 19 18 17 17 18 19 19 18 18 17 17 17 17 18 18 17 18 19 19 19 19 20 20 20 20 20
18 18 18 18 19 19 19 20 20 19 19 20 20 20 20 20 20 20 19 19 18 18 18 18 18 18 18 18 18 18 18 18 18 18 19 19 18 18 19 19 19 19 19
19 19 19 19 19 19 19 20 20 20 20 20 21 21 21 20 20 20 19 19 19 19 19 19 19 19 19 19 18 18 18 18 19 19 19 19 19 18 18 18 18 18 19
19 19 20 20 20 19 20 20 20 20 20 20 20 20 20 20 20 20 20 20 20 20 20 20 20 20 19 19 19 19 19 19 19 18 19 19 18 18 17 17 17 18 18
20 20 20 20 20 20 20 20 19 19 20 20 20 20 20 20 20 20 20 20 20 21 20 20 20 19 19 19 20 20 19 18 18 18 18 19 19 18 18 18 18 17 17
21 21 21 21 21 20 20 21 20 21 21 21 20 20 20 20 20 20 20 20 21 21 21 20 20 20 20 19 20 19 19 18 18 18 18 19 19 18 18 18 17 17 18